Mount Pleasant, IA

4:39 AM CDT on June 25, 2017 (GMT -0500)
Mount Pleasant Municipal

Weather History for KMPZ - October, 2014

Change the Weather History Date:

Thursday, October 30, 2014

  Actual Average Record
Temperature  
Mean Temperature 44 °F -  
Max Temperature 58 °F 59 °F 88 °F (1950)
Min Temperature 31 °F 39 °F 17 °F (1988)
Degree Days  
Heating Degree Days 20    
Moisture  
Dew Point 37 °F    
Average Humidity 77    
Maximum Humidity 100    
Minimum Humidity 44    
Precipitation  
Precipitation 0.00 in - - ()
Sea Level Pressure  
Sea Level Pressure 30.08 in    
Wind  
Wind Speed 4 mph (ESE)    
Max Wind Speed 12 mph    
Max Gust Speed 16 mph    
Visibility 10 miles    
Events Rain    
Averages and records for this station are not official NWS values.
T = Trace of Precipitation, MM = Missing Value Source: NWS Daily Summary

Daily Weather History Graph

Daily Weather History Graph

Search for Another Location

Airport or City:

Trip Planner

Search our weather history database for the weather conditions in past years. The results will help you decide how hot, cold, wet, or windy it might be!

Date:

Astronomy

Oct. 30, 2014 Rise Set
Actual Time 7:34 AM CDT 6:04 PM CDT
Civil Twilight 7:06 AM CDT 6:32 PM CDT
Nautical Twilight 6:33 AM CDT 7:05 PM CDT
Astronomical Twilight 6:01 AM CDT 7:36 PM CDT
Moon 1:38 PM CDT (10/30) No Moon Set
Length of Visible Light 11h 26m
Length of Day
10h 29m
Waxing Crescent, 45% of the Moon is Illuminated
Oct 30
Waxing Crescent
Oct 30
First Quarter
Nov 6
Full
Nov 14
Last Quarter
Nov 22
New

Hourly Weather History & Observations

Time (CDT) Temp. Windchill Dew Point Humidity Pressure Visibility Wind Dir Wind Speed Gust Speed Precip Events Conditions
12:15 AM 33.4 °F - 32.5 °F 96% 30.15 in 10.0 mi Calm Calm - N/A   Clear
12:35 AM 32.9 °F 29.8 °F 32.0 °F 96% 30.15 in 10.0 mi SSE 3.5 mph - N/A   Clear
12:55 AM 32.0 °F - 31.3 °F 97% 30.15 in 10.0 mi Calm Calm - N/A   Clear
1:15 AM 32.0 °F - 31.8 °F 99% 30.14 in 10.0 mi Calm Calm - N/A   Clear
1:35 AM 32.2 °F - 32.0 °F 99% 30.14 in 10.0 mi Calm Calm - N/A   Clear
1:55 AM 32.0 °F - 32.0 °F 100% 30.14 in 10.0 mi Calm Calm - N/A   Clear
2:15 AM 32.2 °F 28.9 °F 32.2 °F 100% 30.14 in 10.0 mi SSE 3.5 mph - N/A   Clear
2:35 AM 31.1 °F 26.4 °F 30.7 °F 99% 30.13 in 10.0 mi SE 4.6 mph - N/A   Clear
2:55 AM 31.6 °F 28.3 °F 31.3 °F 99% 30.13 in 10.0 mi SE 3.5 mph - N/A   Clear
3:15 AM 32.0 °F 28.7 °F 31.5 °F 98% 30.13 in 10.0 mi SE 3.5 mph - N/A   Clear
3:35 AM 32.0 °F 27.5 °F 31.5 °F 98% 30.13 in 10.0 mi South 4.6 mph - N/A   Clear
3:55 AM 33.1 °F 28.7 °F 32.9 °F 99% 30.12 in 10.0 mi SSE 4.6 mph - N/A   Clear
4:15 AM 32.9 °F 29.8 °F 32.0 °F 96% 30.12 in 10.0 mi SSE 3.5 mph - N/A   Clear
4:35 AM 33.1 °F 28.7 °F 32.4 °F 97% 30.11 in 10.0 mi SSE 4.6 mph - N/A   Scattered Clouds
4:55 AM 34.0 °F - 33.3 °F 97% 30.12 in 10.0 mi Calm Calm - N/A   Mostly Cloudy
5:15 AM 35.4 °F 31.5 °F 34.5 °F 97% 30.11 in 10.0 mi SE 4.6 mph - N/A   Overcast
5:35 AM 36.0 °F 32.1 °F 34.7 °F 95% 30.11 in 10.0 mi SE 4.6 mph - N/A   Mostly Cloudy
5:55 AM 36.0 °F 31.1 °F 34.5 °F 94% 30.10 in 10.0 mi SE 5.8 mph - N/A   Scattered Clouds
6:15 AM 36.1 °F 31.4 °F 34.3 °F 93% 30.10 in 10.0 mi SE 5.8 mph - N/A   Clear
6:35 AM 36.7 °F 32.0 °F 34.7 °F 93% 30.10 in 10.0 mi SE 5.8 mph - N/A   Scattered Clouds
6:55 AM 37.4 °F 32.8 °F 35.1 °F 91% 30.09 in 10.0 mi SE 5.8 mph - N/A   Scattered Clouds
7:15 AM 38.1 °F 34.6 °F 34.7 °F 87% 30.10 in 10.0 mi SE 4.6 mph - N/A   Mostly Cloudy
7:35 AM 38.5 °F 35.0 °F 35.2 °F 88% 30.10 in 10.0 mi SE 4.6 mph - N/A   Overcast
7:55 AM 38.3 °F 34.8 °F 35.8 °F 91% 30.09 in 10.0 mi ESE 4.6 mph - N/A   Overcast
8:15 AM 39.4 °F 34.5 °F 35.8 °F 87% 30.08 in 10.0 mi ESE 6.9 mph - N/A   Overcast
8:35 AM 40.8 °F 38.8 °F 36.3 °F 84% 30.10 in 10.0 mi SSE 3.5 mph - N/A   Overcast
8:55 AM 41.5 °F 37.8 °F 36.9 °F 83% 30.10 in 10.0 mi SE 5.8 mph - N/A   Overcast
9:15 AM 41.9 °F 39.0 °F 36.5 °F 81% 30.10 in 10.0 mi South 4.6 mph - N/A   Overcast
9:35 AM 41.9 °F 38.2 °F 36.7 °F 82% 30.08 in 10.0 mi ESE 5.8 mph - N/A   Overcast
9:55 AM 42.8 °F 41.1 °F 36.9 °F 80% 30.09 in 10.0 mi ESE 3.5 mph - N/A   Overcast
10:15 AM 44.1 °F 40.8 °F 37.0 °F 76% 30.08 in 10.0 mi ESE 5.8 mph - N/A   Overcast
10:35 AM 45.5 °F 43.2 °F 36.9 °F 72% 30.08 in 10.0 mi ESE 4.6 mph - N/A   Overcast
10:55 AM 45.5 °F 43.2 °F 36.7 °F 71% 30.08 in 10.0 mi SSE 4.6 mph - N/A   Overcast
11:15 AM 46.4 °F 44.3 °F 37.6 °F 71% 30.08 in 10.0 mi SE 4.6 mph - N/A   Overcast
11:35 AM 47.7 °F - 37.6 °F 68% 30.08 in 10.0 mi SE 6.9 mph - N/A   Overcast
11:55 AM 50.0 °F - 38.1 °F 64% 30.07 in 10.0 mi SSE 6.9 mph - N/A   Overcast
12:15 PM 52.3 °F - 37.8 °F 58% 30.06 in 10.0 mi SE 8.1 mph - N/A   Overcast
12:35 PM 52.3 °F - 36.9 °F 56% 30.05 in 10.0 mi SSE 9.2 mph - N/A   Overcast
12:55 PM 53.1 °F - 36.5 °F 53% 30.03 in 10.0 mi SE 6.9 mph - N/A   Mostly Cloudy
1:15 PM 55.6 °F - 36.0 °F 48% 30.02 in 10.0 mi SE 10.4 mph - N/A   Scattered Clouds
1:35 PM 57.2 °F - 35.4 °F 44% 30.00 in 10.0 mi SE 9.2 mph - N/A   Clear
1:55 PM 57.4 °F - 38.1 °F 49% 29.99 in 10.0 mi SSE 11.5 mph 16.1 mph N/A   Clear
2:15 PM 58.1 °F - 38.1 °F 47% 30.00 in 10.0 mi SE 8.1 mph - N/A   Clear
2:35 PM 58.1 °F - 38.3 °F 48% 30.00 in 10.0 mi Calm Calm - N/A   Clear
2:55 PM 58.1 °F - 38.5 °F 48% 30.00 in 10.0 mi South 5.8 mph - N/A   Clear
3:15 PM 58.1 °F - 38.3 °F 48% 30.00 in 10.0 mi Calm Calm - N/A   Clear
3:35 PM 58.5 °F - 38.5 °F 47% 30.00 in 10.0 mi NE 5.8 mph - N/A   Clear
3:55 PM 58.1 °F - 38.5 °F 48% 30.01 in 10.0 mi East 4.6 mph - N/A   Scattered Clouds
4:15 PM 57.2 °F - 38.1 °F 49% 30.01 in 10.0 mi ENE 3.5 mph - N/A   Scattered Clouds
4:35 PM 55.8 °F - 37.9 °F 51% 30.02 in 10.0 mi ENE 4.6 mph - N/A   Scattered Clouds
4:55 PM 54.9 °F - 38.1 °F 53% 30.03 in 10.0 mi East 4.6 mph - N/A   Mostly Cloudy
5:15 PM 54.5 °F - 38.5 °F 55% 30.03 in 10.0 mi ENE 4.6 mph - N/A   Overcast
5:35 PM 53.6 °F - 38.5 °F 57% 30.04 in 10.0 mi ENE 5.8 mph - N/A   Overcast
5:55 PM 52.7 °F - 38.7 °F 59% 30.05 in 10.0 mi ENE 5.8 mph - N/A   Overcast
6:15 PM 52.2 °F - 38.7 °F 60% 30.06 in 10.0 mi ENE 5.8 mph - N/A   Overcast
6:35 PM 50.5 °F - 39.6 °F 66% 30.06 in 10.0 mi NE 8.1 mph - N/A   Overcast
6:55 PM 49.5 °F - 39.6 °F 69% 30.07 in 10.0 mi NE 6.9 mph - N/A Rain Light Rain
7:15 PM 48.9 °F - 39.6 °F 70% 30.08 in 10.0 mi NE 6.9 mph - N/A   Overcast
7:35 PM 48.0 °F - 40.3 °F 75% 30.07 in 10.0 mi ENE 4.6 mph - N/A Rain Light Rain
7:55 PM 47.3 °F - 40.6 °F 78% 30.08 in 10.0 mi NE 3.5 mph - N/A   Overcast
8:15 PM 47.3 °F - 40.8 °F 78% 30.08 in 10.0 mi NE 3.5 mph - N/A Rain Light Rain
8:35 PM 46.4 °F 45.2 °F 41.4 °F 83% 30.09 in 10.0 mi NNE 3.5 mph - N/A   Overcast
8:55 PM 46.2 °F 44.1 °F 41.5 °F 84% 30.09 in 10.0 mi NNE 4.6 mph - N/A   Overcast
9:15 PM 45.9 °F 43.6 °F 41.0 °F 83% 30.10 in 10.0 mi NNE 4.6 mph - N/A   Overcast
9:35 PM 45.9 °F 44.6 °F 40.8 °F 83% 30.10 in 10.0 mi NNE 3.5 mph - N/A   Overcast
9:55 PM 45.9 °F - 41.0 °F 83% 30.11 in 10.0 mi Calm Calm - N/A   Overcast
10:15 PM 45.9 °F - 41.0 °F 83% 30.12 in 10.0 mi Calm Calm - N/A   Overcast
10:35 PM 45.7 °F 43.4 °F 41.0 °F 84% 30.13 in 10.0 mi North 4.6 mph - N/A   Overcast
10:55 PM 45.7 °F 43.4 °F 41.2 °F 84% 30.13 in 10.0 mi NNW 4.6 mph - N/A   Overcast
11:15 PM 45.7 °F 44.4 °F 41.0 °F 84% 30.13 in 10.0 mi NNW 3.5 mph - N/A   Overcast
11:35 PM 45.7 °F 44.4 °F 41.2 °F 84% 30.13 in 10.0 mi NNW 3.5 mph - N/A   Overcast
11:55 PM 45.9 °F 44.6 °F 40.5 °F 81% 30.14 in 10.0 mi NNW 3.5 mph - N/A   Overcast